Wind_Speed
43 45 47 48 48 53 56 58 63 69 70 67 62 53 46 40 36 34 31 25 23 21 18 17 17 18 18 18 18 18 19 19 18 19 20 21 25 27 31 36 44 47 47 50
44 46 49 50 50 55 58 61 66 70 68 66 61 52 44 39 36 34 31 26 24 22 19 18 18 17 17 16 16 16 16 16 15 16 18 19 16 18 21 27 37 43 44 50
46 48 50 51 53 56 61 65 69 69 66 65 57 49 42 38 35 33 30 25 24 22 19 17 15 15 15 15 14 13 13 12 12 13 14 15 15 14 15 17 20 30 39 42
48 48 50 51 54 60 65 68 71 69 67 63 55 49 44 39 36 34 30 25 24 21 18 16 14 13 13 12 12 12 12 11 11 11 11 12 12 10 11 14 18 22 26 32
48 49 51 51 55 60 65 69 72 69 65 61 53 48 43 39 36 34 30 25 23 20 17 15 14 13 12 10 9 10 11 11 12 12 12 11 10 9 9 11 14 30 32 32
50 51 52 54 57 62 66 70 70 66 64 57 51 46 42 40 37 33 29 25 23 21 17 16 15 13 12 10 10 9 9 10 10 11 11 11 10 11 11 10 12 13 25 40
50 52 54 57 59 64 67 70 67 63 61 54 49 45 41 40 38 33 28 26 23 22 19 17 16 15 15 14 13 12 10 10 10 10 10 10 10 11 13 15 12 11 11 14
50 52 54 60 61 65 68 70 64 62 57 52 48 43 42 40 38 33 26 24 22 22 22 20 19 18 17 16 15 15 14 13 11 10 11 10 11 10 12 15 17 16 15 16
52 53 56 60 62 65 69 65 60 62 56 51 46 43 41 41 39 34 26 24 23 23 23 23 23 22 22 21 19 17 16 15 13 13 13 14 12 12 13 13 16 17 18 20
53 54 57 61 64 67 68 63 61 58 54 49 45 42 40 40 39 34 27 25 24 24 26 26 25 24 25 24 22 17 15 13 14 16 16 16 16 18 18 19 18 18 17 19
53 55 59 61 64 68 64 60 61 55 51 48 43 41 39 38 38 33 29 27 27 28 29 28 28 26 26 24 20 15 15 14 16 17 18 18 19 18 20 21 23 22 20 19
54 57 60 62 64 67 60 59 57 52 48 45 41 39 37 36 35 31 29 28 28 29 30 28 28 27 26 23 15 16 14 13 16 18 21 21 21 22 23 23 23 24 24 23
54 58 61 63 66 64 58 58 54 49 46 43 40 38 36 34 33 32 31 30 31 30 30 28 27 25 23 21 16 15 16 14 15 18 22 24 27 25 25 26 27 26 26 24
55 59 62 64 67 59 58 55 51 46 42 38 39 37 35 35 34 33 32 32 33 32 32 28 25 24 22 21 19 19 17 15 18 20 23 25 27 27 27 28 29 28 27 27
57 59 63 66 64 58 56 52 48 44 40 36 36 37 35 35 34 33 33 32 34 36 30 28 24 21 23 20 18 15 15 20 25 27 28 28 27 27 28 30 30 30 28 28
59 61 65 67 59 57 54 50 46 44 38 35 35 35 35 35 34 34 33 32 34 35 30 25 22 21 20 17 15 16 21 24 27 30 32 31 30 30 29 30 30 30 29 29
59 61 65 64 57 56 53 50 46 40 36 34 35 33 33 33 31 31 32 31 32 32 25 21 19 20 21 20 20 21 23 25 27 29 31 30 31 30 31 30 30 30 29 30
62 64 65 59 56 53 51 48 44 38 36 36 35 34 33 33 32 32 31 30 30 27 21 20 16 21 21 23 25 24 25 26 28 29 29 30 32 32 31 30 29 30 31 33
64 65 59 55 54 53 51 46 42 38 37 37 36 35 35 34 34 33 31 28 27 23 19 15 17 20 24 28 29 29 29 30 31 31 31 31 31 31 30 31 31 32 34 35
66 62 57 56 56 54 50 44 42 39 38 37 37 37 35 34 35 34 33 27 24 21 16 18 19 24 29 31 30 30 31 31 30 30 29 29 30 31 32 33 34 35 36 37
62 59 57 57 56 54 49 48 41 38 37 36 38 38 36 34 34 33 29 27 23 19 20 21 24 27 32 32 33 32 31 30 30 31 31 31 31 32 33 35 37 38 38 38
60 58 58 58 59 54 53 46 42 40 38 37 37 38 34 32 32 31 28 25 26 22 25 25 29 32 34 32 32 32 33 34 34 35 35 36 36 37 37 37 38 37 37 36
59 59 60 61 57 55 50 45 42 41 40 38 37 36 32 30 31 30 26 28 27 28 30 31 32 32 32 33 34 36 36 36 36 36 36 36 36 36 36 36 36 36 35 33
60 60 61 57 59 54 48 45 42 40 39 37 35 31 28 28 28 27 28 29 29 31 31 31 31 32 33 35 36 36 36 36 36 35 35 36 36 35 35 34 34 34 34 33
59 60 59 59 57 51 48 44 39 38 36 32 28 24 25 26 25 29 29 30 30 30 30 31 32 33 34 35 36 36 37 36 36 36 36 36 36 36 35 34 33 33 32 31
58 59 60 56 51 52 46 40 37 33 26 24 23 26 26 25 27 28 28 28 27 29 30 31 32 33 35 35 36 37 37 37 37 37 37 37 36 36 36 36 34 33 32 32
60 60 55 55 54 48 41 33 27 22 19 22 26 25 25 27 28 28 26 27 28 29 29 31 33 34 35 36 37 38 38 38 38 38 38 38 38 37 37 37 36 35 34 32
Wind_Direction
338 338 339 340 341 341 339 339 340 341 343 346 345 349 350 347 344 340 337 333 327 319 307 294 288 287 284 280 276 272 267 264 265 269 271 271 269 268 264 259 256 252 253 251
338 338 339 340 341 340 341 340 343 344 346 346 348 351 350 349 346 344 341 337 333 328 316 303 294 288 286 285 280 274 269 267 269 274 275 276 279 280 273 261 255 251 248 250
340 339 340 339 340 342 343 344 345 346 347 349 351 352 351 351 349 348 345 341 337 332 325 316 306 298 294 290 286 279 274 273 277 280 285 291 297 302 303 292 266 252 245 246
339 339 339 340 340 342 346 346 346 348 348 350 351 352 351 351 349 348 348 345 343 339 332 329 322 313 311 309 301 295 291 290 285 282 288 301 307 314 316 296 272 250 242 238
337 338 339 340 340 343 346 345 347 348 349 350 352 351 351 349 348 348 347 347 346 344 340 338 334 328 330 328 322 310 301 299 296 299 302 308 316 327 327 310 283 247 240 239
337 337 338 337 339 343 345 346 348 347 349 350 351 350 349 348 347 347 347 344 346 345 342 343 346 342 339 339 339 334 318 307 303 306 310 314 311 325 319 312 309 288 257 247
337 337 337 338 340 343 346 347 348 348 348 349 350 350 349 347 347 347 347 343 343 346 347 341 341 341 341 340 340 339 332 324 318 315 317 314 310 312 315 312 314 308 309 293
336 336 337 339 341 344 345 348 347 348 347 349 350 349 349 348 347 348 345 343 345 345 345 342 339 338 337 335 334 331 330 330 328 319 318 316 308 305 309 307 307 301 296 295
335 336 337 339 342 344 345 348 347 347 346 349 349 350 349 348 348 348 344 340 343 343 345 342 340 339 335 331 325 324 324 326 325 321 318 316 311 313 316 304 302 300 296 294
334 334 336 339 343 343 346 346 346 346 345 347 349 350 349 349 349 351 348 342 343 344 342 338 336 336 334 328 321 316 317 315 323 325 325 319 315 322 323 312 308 307 297 289
333 334 337 339 342 343 346 345 345 345 344 347 349 349 348 350 351 353 352 347 343 336 332 333 335 333 336 330 317 306 313 315 322 319 318 314 311 316 318 317 318 321 315 307
333 334 337 340 341 344 344 344 344 343 343 346 347 347 348 352 354 351 352 352 350 347 342 340 335 333 334 328 315 298 302 307 317 318 315 317 316 315 317 316 317 316 313 312
332 334 337 339 340 344 343 343 344 342 342 344 344 346 347 349 351 348 346 343 341 338 332 334 333 331 332 325 313 297 299 311 321 318 312 315 316 316 314 314 313 312 311 310
332 334 336 338 340 343 343 343 342 341 340 340 340 342 343 344 344 344 344 343 343 341 339 332 328 329 330 323 313 306 307 309 316 315 314 312 310 311 310 310 310 309 309 304
332 334 336 337 341 342 343 343 341 338 339 336 335 336 336 335 336 337 339 340 340 341 336 334 329 328 332 329 321 316 307 311 314 313 312 310 306 307 307 307 306 304 304 303
332 334 336 337 339 341 341 341 338 337 336 332 330 332 330 331 331 332 334 336 337 339 335 331 330 329 338 339 333 316 307 305 306 307 306 308 307 307 305 304 304 303 302 299
331 334 336 337 338 341 339 339 339 335 332 331 328 332 330 328 330 332 334 334 337 337 333 332 327 331 339 340 334 325 316 311 308 307 305 305 305 305 306 306 304 302 299 299
330 332 335 336 339 339 338 339 336 333 330 332 331 333 330 330 332 333 334 335 337 338 337 332 322 332 338 339 341 335 327 321 317 314 311 309 307 308 309 306 303 301 301 303
329 332 334 336 337 338 340 337 335 331 332 332 332 334 333 334 337 336 336 337 339 339 338 334 323 330 337 339 339 334 329 326 322 319 315 313 311 311 310 309 308 306 305 305
329 333 333 336 338 339 338 337 333 331 332 332 333 334 334 337 339 338 339 342 344 344 342 337 332 338 341 338 334 332 330 327 325 323 320 317 315 313 311 309 308 306 305 304
329 332 335 336 337 337 337 336 335 331 331 331 334 335 335 337 340 340 340 342 344 343 344 341 340 341 338 337 336 334 332 330 327 323 320 317 315 312 310 308 306 305 304 303
332 335 335 335 337 338 337 337 334 332 334 333 334 334 333 336 339 339 342 343 344 346 342 341 341 338 338 340 337 334 332 329 326 323 320 318 316 313 311 309 308 307 306 306
332 334 335 337 337 336 335 334 333 331 330 330 334 331 334 337 338 338 343 343 347 344 347 342 338 339 340 337 335 333 331 329 327 325 323 321 320 319 317 315 313 311 309 308
334 335 335 336 335 334 332 331 328 325 326 329 330 331 336 339 338 341 343 345 346 346 340 340 340 340 338 337 336 335 334 332 331 329 327 326 325 323 321 319 317 315 313 311
334 333 334 334 332 332 329 327 323 323 325 329 332 336 337 339 343 346 346 347 342 343 342 343 342 340 341 340 339 338 337 336 335 333 332 330 329 328 326 324 321 318 315 312
331 331 331 332 333 329 327 324 325 328 330 335 340 338 342 346 347 347 346 345 347 345 345 345 344 343 342 341 340 339 338 338 337 335 334 332 331 330 328 327 325 322 319 316
330 332 333 333 330 327 328 331 335 339 344 344 341 345 348 348 347 346 351 350 348 346 347 345 344 343 342 341 341 339 338 338 337 336 334 333 331 330 328 327 325 323 321 319
Height
5708 5700 5691 5682 5674 5663 5651 5639 5626 5612 5598 5586 5573 5560 5551 5543 5535 5528 5521 5516 5511 5506 5502 5500 5498 5495 5493 5491 5490 5490 5489 5488 5487 5487 5486 5485 5484 5483 5482 5481 5481 5481 5482 5483
5702 5693 5685 5676 5667 5657 5647 5633 5621 5606 5591 5579 5565 5555 5546 5538 5531 5523 5516 5510 5505 5501 5497 5495 5491 5489 5487 5485 5484 5482 5481 5481 5479 5479 5479 5477 5475 5474 5471 5470 5468 5468 5471 5470
5699 5690 5680 5670 5661 5650 5638 5625 5612 5599 5585 5571 5559 5550 5541 5534 5527 5520 5513 5507 5502 5497 5492 5489 5486 5483 5481 5479 5477 5476 5475 5474 5473 5472 5471 5469 5467 5464 5461 5458 5457 5456 5458 5460
5692 5684 5674 5664 5653 5643 5631 5617 5605 5591 5577 5565 5555 5545 5536 5529 5522 5516 5510 5503 5498 5493 5489 5485 5482 5479 5477 5474 5472 5470 5469 5467 5466 5465 5464 5462 5460 5456 5454 5451 5450 5450 5451 5450
5685 5677 5669 5660 5649 5638 5626 5612 5598 5585 5572 5560 5549 5540 5533 5526 5518 5513 5506 5501 5496 5491 5487 5483 5479 5476 5473 5470 5468 5466 5464 5462 5460 5459 5457 5455 5454 5451 5448 5446 5444 5443 5443 5444
5679 5670 5661 5652 5643 5630 5618 5605 5594 5580 5568 5556 5547 5538 5529 5522 5515 5509 5503 5497 5493 5488 5484 5480 5477 5473 5470 5467 5465 5462 5460 5458 5456 5454 5451 5449 5449 5445 5443 5441 5438 5436 5435 5435
5673 5663 5653 5644 5634 5623 5611 5598 5586 5574 5563 5552 5543 5534 5526 5518 5511 5505 5499 5494 5489 5485 5480 5477 5474 5471 5467 5464 5461 5459 5456 5454 5452 5449 5447 5446 5444 5440 5438 5434 5433 5431 5429 5426
5666 5657 5647 5637 5627 5616 5603 5591 5581 5569 5558 5548 5538 5530 5522 5514 5507 5500 5495 5490 5486 5481 5477 5474 5470 5467 5464 5460 5457 5454 5452 5449 5447 5445 5443 5442 5439 5437 5434 5430 5428 5425 5423 5420
5660 5651 5642 5632 5621 5609 5597 5586 5575 5565 5553 5543 5534 5525 5517 5509 5502 5496 5491 5486 5482 5478 5473 5470 5465 5462 5459 5455 5453 5450 5447 5444 5443 5440 5438 5436 5434 5432 5429 5426 5423 5419 5416 5413
5655 5645 5635 5625 5615 5604 5591 5580 5569 5558 5548 5539 5530 5522 5514 5507 5499 5493 5487 5483 5479 5474 5470 5466 5462 5458 5454 5450 5446 5444 5442 5440 5437 5434 5431 5429 5426 5424 5421 5420 5420 5413 5409 5406
5649 5639 5630 5619 5608 5596 5585 5573 5563 5553 5542 5534 5525 5518 5511 5504 5497 5491 5485 5481 5476 5471 5465 5461 5456 5452 5448 5444 5440 5438 5436 5434 5432 5429 5426 5424 5421 5419 5416 5412 5407 5403 5400 5398
5643 5634 5624 5613 5602 5590 5578 5568 5557 5547 5538 5530 5522 5515 5508 5501 5494 5488 5483 5478 5472 5467 5462 5457 5451 5447 5443 5438 5435 5432 5431 5430 5428 5425 5420 5417 5414 5411 5407 5403 5400 5396 5393 5389
5636 5626 5616 5607 5596 5584 5572 5562 5551 5542 5533 5525 5518 5511 5504 5498 5491 5486 5481 5475 5469 5463 5458 5452 5447 5443 5438 5433 5430 5427 5425 5424 5422 5419 5414 5410 5405 5403 5399 5396 5392 5389 5385 5381
5630 5620 5610 5600 5590 5579 5568 5557 5546 5537 5529 5521 5514 5507 5500 5494 5488 5482 5476 5471 5464 5458 5452 5446 5441 5437 5433 5428 5425 5422 5420 5418 5416 5413 5409 5405 5400 5396 5392 5388 5384 5380 5377 5373
5623 5613 5603 5593 5583 5573 5562 5551 5541 5532 5526 5517 5510 5503 5497 5490 5484 5478 5472 5466 5459 5453 5446 5441 5436 5432 5428 5423 5420 5417 5415 5413 5409 5406 5402 5398 5394 5390 5385 5380 5376 5372 5369 5365
5615 5605 5595 5585 5575 5565 5555 5548 5538 5528 5520 5513 5506 5499 5492 5485 5479 5472 5466 5460 5453 5447 5441 5436 5431 5428 5424 5420 5416 5414 5410 5406 5402 5398 5393 5389 5385 5381 5377 5373 5368 5364 5360 5357
5608 5599 5588 5578 5569 5559 5548 5539 5530 5521 5513 5508 5500 5494 5486 5480 5474 5467 5461 5454 5448 5441 5436 5431 5428 5424 5420 5416 5412 5408 5404 5399 5395 5390 5385 5382 5376 5372 5368 5364 5359 5355 5351 5348
5600 5592 5582 5572 5562 5553 5543 5533 5523 5515 5507 5501 5494 5488 5481 5474 5467 5462 5455 5449 5442 5436 5432 5427 5423 5420 5416 5411 5407 5402 5397 5392 5387 5382 5377 5372 5367 5362 5358 5354 5350 5345 5341 5337
5592 5583 5573 5565 5557 5546 5537 5527 5519 5510 5504 5494 5487 5480 5474 5468 5462 5455 5450 5444 5437 5432 5428 5424 5420 5416 5411 5406 5400 5395 5390 5384 5379 5374 5369 5363 5358 5354 5349 5344 5340 5336 5331 5326
5582 5573 5565 5556 5547 5537 5529 5519 5513 5504 5496 5488 5481 5474 5468 5462 5454 5448 5443 5437 5432 5427 5424 5419 5416 5411 5406 5399 5394 5388 5383 5377 5372 5366 5362 5357 5351 5346 5340 5335 5331 5326 5321 5316
5572 5564 5556 5547 5538 5530 5520 5512 5504 5496 5489 5482 5474 5468 5462 5455 5449 5443 5438 5432 5428 5424 5421 5416 5410 5405 5400 5393 5387 5381 5376 5371 5365 5360 5354 5349 5344 5338 5332 5326 5321 5315 5310 5305
5561 5553 5545 5537 5527 5518 5511 5501 5494 5487 5481 5474 5468 5462 5455 5449 5444 5438 5433 5429 5424 5419 5415 5410 5404 5399 5393 5387 5381 5376 5370 5364 5358 5351 5345 5339 5333 5327 5321 5315 5309 5303 5298 5293
5554 5545 5536 5527 5519 5510 5500 5493 5486 5479 5472 5466 5460 5454 5449 5443 5438 5433 5428 5423 5419 5414 5408 5403 5398 5393 5387 5381 5375 5369 5363 5356 5349 5342 5336 5329 5322 5316 5310 5303 5297 5291 5286 5282
5543 5535 5526 5519 5508 5500 5492 5485 5478 5472 5465 5459 5454 5448 5443 5438 5433 5428 5423 5418 5413 5408 5404 5398 5393 5387 5382 5376 5369 5362 5355 5349 5341 5334 5327 5320 5313 5307 5301 5294 5288 5281 5276 5270
5535 5527 5517 5508 5499 5491 5483 5476 5469 5464 5458 5452 5448 5444 5440 5434 5429 5424 5419 5414 5409 5404 5399 5394 5388 5383 5376 5369 5363 5356 5349 5342 5334 5327 5320 5313 5306 5298 5292 5286 5279 5273 5267 5261
5530 5520 5511 5502 5491 5482 5474 5467 5461 5456 5451 5447 5443 5439 5434 5430 5426 5421 5415 5411 5405 5400 5395 5390 5384 5377 5371 5364 5357 5350 5343 5335 5328 5320 5313 5305 5298 5291 5283 5277 5270 5264 5258 5252
5520 5510 5500 5492 5482 5473 5465 5459 5454 5450 5447 5443 5439 5434 5431 5427 5422 5417 5412 5407 5402 5398 5393 5386 5380 5374 5367 5360 5352 5345 5337 5329 5321 5314 5306 5298 5291 5283 5276 5268 5261 5255 5248 5243